Location: Borbetomagus
(49.6328°N, 8.3592°E)
Time: 19:25:57
(UTC+00:00)

Cosmos 2239 Rocket - Pass Details

Date: 19 May 2025
Orbit: 952 x 991 km, 82.9° (Epoch: 20 June)

Event Time Altitude Azimuth Distance (km) Brightness Sun altitude
Rises 21:50:37 0° 349° (N) 3,681 9.1 -17.4°
Reaches altitude 10° 21:53:09 10° 349° (N) 2,723 8.1 -17.6°
Maximum altitude 21:59:23 85° 263° (W) 974 4.5 -18.0°
Enters shadow 22:02:49 28° 177° (S) 1,705 5.2 -18.1°
